Tracking 31011 objects as of 12-Jul-2025
HD Live streaming from Space Station
objects crossing your sky now

STARLINK-5708

Track STARLINK-5708 now!
10-day predictions
STARLINK-5708 is classified as:


NORAD ID: 55470
Int'l Code: 2023-015X
Perigee: 565.3 km
Apogee: 567.1 km
Inclination: 43.0 °
Period: 95.8 minutes
Semi major axis: 6937 km
RCS: Unknown
Launch date: February 2, 2023
Source: United States (US)
Launch site: AIR FORCE EASTERN TEST RANGE (AFETR)
Your satellite tracking list
Your tracking list is empty




NASA's NSSDC Master Catalog

Two Line Element Set (TLE):
1 55470U 23015X   25193.28596943 -.00000075  00000-0  95256-5 0  9993
2 55470  43.0031 192.0525 0001315 284.0538  76.0158 15.02537895134592
Source of the keplerian elements: AFSPC